[[{"header":{"parameterUnit":"m.s-1","parameterCategory":1,"la1":30.2991,"la2":30.254,"lo1":-89.0895,"lo2":-89.0444,"dy":0.0017,"dx":0.0017,"nx":28,"ny":28,"refTime":"2024-03-04T03:00:00:Z","depth":0,"parameterNumber":2,"parameterNumberName":"U-component_of_WINDS"},"data":[0,0,0,0,0,0,0,0,0,0,0,0,0,0,0,0,0,0,0,0,0,0,0,0,0,0,0,0,0,0,0,0,0,0,0,0,0,0,0,0,0,0,0,0,0,0,0,0,0,0,0,0,0,0,0,0,0,0,0.8895,0.8896,0,0.8969,0.897,0.8971,0.9007,0.9007,0.9007,0.9007,0.9082,0.9084,0.9086,0,0,0,0,0,0,0,0,0,0,0,0,0,0.8785,0.8787,0.8895,0.8896,0.8897,0.8969,0.897,0.8971,0.9007,0.9007,0.9007,0.9007,0.9081,0.9084,0.9086,0,0,0,0,0,0,0,0,0,0,0,0,0,0.8843,0.8788,0.8895,0.8924,0.8927,0.8969,0.897,0.8971,0.9007,0.9007,0.9007,0.9007,0.9081,0.9084,0.9087,0.9105,0,0,0.9096,0.9097,0,0,0,0,0,0,0,0,0.884,0.8847,0.8919,0.8922,0.8926,0.8979,0.8959,0.9016,0.9007,0.8977,0.9007,0.9007,0.9048,0.9053,0.9067,0.9108,0.9111,0.9096,0.9098,0.9099,0.91,0,0,0,0,0,0,0,0.8836,0.8845,0.8924,0.892,0.8924,0.8933,0.8941,0.897,0.9011,0.898,0.8982,0.8991,0.905,0.9064,0.9069,0.9113,0.9096,0.9098,0.91,0.9101,0.9173,0.9173,0,0,0,0,0,0,0.8827,0.8841,0.8922,0.8927,0.8882,0.8935,0.8944,0.8962,0.9011,0.9019,0.8991,0.8992,0.9059,0.9066,0.9072,0.9097,0.9099,0.9102,0.9103,0.9173,0.9173,0.9174,0,0,0,0,0,0,0.8825,0.8834,0.8919,0.8885,0.8896,0.8937,0.8956,0.8963,0.8978,0.902,0.9027,0.8998,0.906,0.9068,0.9097,0.91,0.9103,0.9106,0.9173,0.9173,0.9173,0.9147,0,0,0,0,0,0,0.8822,0.8833,0.884,0.8884,0.8898,0.8942,0.8957,0.8965,0.8983,0.8986,0.9028,0.9035,0.906,0.9092,0.91,0.9104,0.9108,0.9173,0.9173,0.9173,0.9148,0.9146,0.9145,0,0,0,0,0,0.8818,0.883,0.8841,0.885,0.8908,0.8942,0.895,0.8978,0.8983,0.8991,0.9018,0.9034,0.9099,0.9095,0.9104,0.9109,0.9173,0.9173,0.9173,0.9149,0.9147,0.9145,0,0,0,0,0,0,0.8784,0.8836,0.8849,0.8875,0.8904,0.8948,0.8959,0.8976,0.9003,0.9005,0.9039,0.9048,0.9074,0.9095,0.9089,0.913,0.9137,0.914,0.9116,0.9114,0.9113,0.9107,0.9111,0,0,0,0,0,0.878,0.8804,0.8848,0.8867,0.8881,0.8917,0.8934,0.8953,0.8985,0.8997,0.9026,0.9055,0.9083,0.91,0.9127,0.9151,0.9161,0.916,0.9158,0.9157,0.9158,0.9174,0.9174,0.9174,0.9174,0.9174,0,0,0.8771,0.8803,0.8815,0.8861,0.8886,0.891,0.8927,0.8952,0.897,0.9,0.903,0.9052,0.9087,0.9114,0.9128,0.9132,0.9161,0.9158,0.9156,0.9158,0.9174,0.9174,0.9174,0.9175,0.9175,0.9175,0,0,0.8768,0.8794,0.8813,0.8838,0.8876,0.89,0.8905,0.8947,0.8963,0.8993,0.9017,0.9039,0.9085,0.9109,0.9128,0.9135,0.9151,0.9143,0.9136,0.9151,0.9151,0.9151,0.9154,0.9155,0.9144,0.9144,0.9144,0,0.8752,0.879,0.8821,0.8845,0.8864,0.8894,0.8914,0.8936,0.898,0.8993,0.8998,0.9057,0.9083,0.9117,0.9119,0.9132,0.9139,0.9138,0.9148,0.9149,0.9149,0.9153,0.9154,0.9143,0.9143,0.9143,0.9144,0,0.8769,0.8795,0.8806,0.8849,0.887,0.8891,0.8926,0.8944,0.8962,0.8986,0.9016,0.9049,0.9083,0.9093,0.911,0.9129,0.9131,0.9142,0.915,0.9147,0.9151,0.9153,0.9141,0.9142,0.9142,0.9143,0,0,0.8745,0.8806,0.881,0.883,0.8874,0.8895,0.8918,0.8953,0.8968,0.8998,0.9018,0.9057,0.9068,0.9089,0.911,0.9122,0.9127,0.9132,0.9133,0.913,0.9151,0.9142,0.9143,0.9138,0.9139,0.9139,0.9148,0,0.8748,0.8791,0.8821,0.8853,0.8877,0.8906,0.8927,0.8956,0.898,0.9004,0.903,0.9057,0.9069,0.9082,0.9096,0.9123,0.9132,0.9123,0.9158,0.9159,0.9148,0.9145,0.9136,0.9143,0.9149,0.915,0.915,0,0.8757,0.8787,0.8821,0.8864,0.8876,0.8893,0.8928,0.8951,0.8986,0.9002,0.9026,0.9048,0.9074,0.908,0.9117,0.9111,0.9127,0.9143,0.9144,0.9148,0.9154,0.9149,0.9145,0.9146,0.9152,0.9152,0.9152,0,0.8736,0.8785,0.8812,0.8829,0.888,0.8892,0.8913,0.8948,0.8967,0.8998,0.9011,0.9044,0.9061,0.9087,0.9117,0.9118,0.9151,0.916,0.9165,0.9165,0.917,0.917,0.9169,0.9181,0.9181,0.9181,0.9181,0,0.8736,0.8756,0.8804,0.8821,0.8844,0.8878,0.8901,0.8925,0.8956,0.8978,0.9005,0.9025,0.9064,0.9089,0.9113,0.9141,0.9148,0.9162,0.9168,0.916,0.9158,0.917,0.9171,0.9181,0.9181,0.9181,0.9181,0,0.8716,0.8749,0.8781,0.8827,0.8839,0.8855,0.8894,0.8912,0.8937,0.8965,0.8973,0.9013,0.9044,0.9077,0.9119,0.9136,0.9162,0.917,0.915,0.9154,0.9158,0.9157,0.9165,0.9168,0.9178,0.9178,0.9177,0,0.8714,0.873,0.8778,0.8795,0.8817,0.8843,0.8864,0.8898,0.8918,0.896,0.8972,0.9006,0.9034,0.9083,0.9115,0.9148,0.9158,0.9158,0.9163,0.9154,0.9158,0.9156,0.9159,0.9157,0.9156,0.9156,0.9156,0,0.8706,0.8722,0.875,0.8785,0.8808,0.8837,0.8866,0.8879,0.8919,0.894,0.8973,0.8995,0.9039,0.9072,0.9109,0.9131,0.915,0.9155,0.9158,0.9149,0.9137,0.9144,0.9146,0.9154,0.9154,0.9154,0.9154,0.9154,0.8695,0.8711,0.8748,0.8779,0.8805,0.8833,0.8852,0.888,0.8908,0.8946,0.8965,0.8998,0.9034,0.9085,0.9108,0.9134,0.9139,0.9144,0.9145,0.9145,0.9143,0.9133,0.9141,0.9141,0.9141,0.9141,0.9141,0,0.8688,0.8714,0.8742,0.8783,0.8808,0.8825,0.8859,0.8878,0.8907,0.8938,0.8966,0.9004,0.9037,0.9073,0.9108,0.9122,0.9132,0.913,0.9129,0.9134,0.9136,0.913,0.9121,0.9121,0.9121,0.9121,0.9121,0.9121,0.8688,0.8717,0.8737,0.8779,0.8805,0.8837,0.8856,0.8881,0.8907,0.8948,0.8976,0.8999,0.9033,0.9071,0.9102,0.9111,0.9123,0.9119,0.9131,0.9132,0.9134,0.9135,0.9129,0.9121,0.9121,0.9126,0.9127,0.9127]},{"header":{"parameterUnit":"m.s-1","parameterCategory":1,"la1":30.2991,"la2":30.254,"lo1":-89.0895,"lo2":-89.0444,"dy":0.0017,"dx":0.0017,"nx":28,"ny":28,"refTime":"2024-03-04T03:00:00:Z","depth":0,"parameterNumber":3,"parameterNumberName":"V-component_of_WINDS"},"data":[0,0,0,0,0,0,0,0,0,0,0,0,0,0,0,0,0,0,0,0,0,0,0,0,0,0,0,0,0,0,0,0,0,0,0,0,0,0,0,0,0,0,0,0,0,0,0,0,0,0,0,0,0,0,0,0,0,0,0.4446,0.4446,0,0.4416,0.4415,0.4415,0.4414,0.4414,0.4415,0.4415,0.4383,0.4382,0.438,0,0,0,0,0,0,0,0,0,0,0,0,0,0.4502,0.4501,0.4446,0.4446,0.4445,0.4416,0.4415,0.4415,0.4414,0.4414,0.4415,0.4415,0.4383,0.4382,0.438,0,0,0,0,0,0,0,0,0,0,0,0,0,0.4475,0.4501,0.4446,0.4441,0.4441,0.4416,0.4415,0.4415,0.4414,0.4414,0.4415,0.4415,0.4384,0.4382,0.438,0.4358,0,0,0.4375,0.4374,0,0,0,0,0,0,0,0,0.4477,0.4473,0.4443,0.4442,0.4441,0.4419,0.4423,0.4396,0.4414,0.4424,0.4415,0.4416,0.4394,0.4392,0.4385,0.4356,0.4355,0.4374,0.4373,0.4372,0.4372,0,0,0,0,0,0,0,0.4479,0.4475,0.4434,0.4442,0.4441,0.444,0.4437,0.4418,0.4406,0.4423,0.4423,0.4419,0.4394,0.4386,0.4384,0.4354,0.4374,0.4373,0.4372,0.4371,0.4305,0.4304,0,0,0,0,0,0,0.4482,0.4476,0.4435,0.4433,0.4461,0.4439,0.4435,0.4426,0.4407,0.4404,0.4419,0.4419,0.4389,0.4386,0.4383,0.4354,0.4372,0.4371,0.437,0.4305,0.4304,0.4304,0,0,0,0,0,0,0.4483,0.4478,0.4436,0.4455,0.4449,0.4437,0.4426,0.4425,0.4417,0.4403,0.4401,0.4413,0.439,0.4385,0.4364,0.4353,0.437,0.4368,0.4306,0.4305,0.4304,0.4298,0,0,0,0,0,0,0.4485,0.4479,0.447,0.4455,0.4448,0.4418,0.4426,0.4424,0.4414,0.4414,0.4398,0.4395,0.439,0.4366,0.4362,0.4351,0.4367,0.4307,0.4306,0.4304,0.4299,0.4296,0.4295,0,0,0,0,0,0.4487,0.447,0.447,0.4465,0.4438,0.4418,0.4414,0.4408,0.4413,0.4404,0.4396,0.4396,0.4355,0.4364,0.4359,0.4347,0.4307,0.4306,0.4304,0.43,0.4297,0.4295,0,0,0,0,0,0,0.4485,0.4468,0.4468,0.4445,0.4433,0.4417,0.4406,0.4406,0.4391,0.4392,0.4385,0.4381,0.4359,0.4351,0.4362,0.4324,0.4332,0.4329,0.433,0.4327,0.4325,0.4327,0.4365,0,0,0,0,0,0.4482,0.4467,0.4453,0.4435,0.4428,0.4418,0.4409,0.4406,0.4392,0.4387,0.4377,0.4363,0.4347,0.4337,0.4322,0.4298,0.4293,0.4287,0.4285,0.4284,0.4281,0.4266,0.4263,0.4299,0.4299,0.4299,0,0,0.4475,0.4464,0.4455,0.4434,0.4424,0.4408,0.4414,0.4397,0.4385,0.4385,0.4363,0.4355,0.434,0.4316,0.4306,0.4309,0.427,0.4282,0.428,0.4279,0.4264,0.4261,0.4258,0.4298,0.4298,0.4298,0,0,0.4455,0.4446,0.4429,0.4418,0.4403,0.4397,0.4393,0.4377,0.4372,0.435,0.4349,0.4335,0.4308,0.4296,0.4287,0.4262,0.4261,0.4258,0.4246,0.4232,0.4229,0.4227,0.4216,0.4213,0.4255,0.4255,0.4255,0,0.4449,0.4425,0.442,0.4403,0.4393,0.4392,0.4374,0.4365,0.4345,0.4338,0.4342,0.4308,0.4297,0.4271,0.4265,0.4258,0.4252,0.4259,0.423,0.4228,0.4225,0.4215,0.4211,0.4255,0.4255,0.4255,0.4255,0,0.4417,0.4401,0.4389,0.437,0.4359,0.4342,0.4334,0.4323,0.432,0.4313,0.4291,0.4278,0.426,0.4254,0.4251,0.4226,0.4229,0.4232,0.4239,0.4221,0.4212,0.4208,0.4254,0.4254,0.4254,0.4254,0,0,0.4395,0.4373,0.4368,0.4359,0.4342,0.4329,0.4312,0.4294,0.4284,0.4271,0.4255,0.4232,0.4235,0.4224,0.422,0.4208,0.4187,0.4212,0.4212,0.4207,0.4157,0.4154,0.415,0.4187,0.4186,0.4186,0.4158,0,0.4371,0.434,0.4335,0.4307,0.4292,0.429,0.4275,0.4262,0.4255,0.424,0.4232,0.4215,0.4221,0.4214,0.4202,0.4192,0.4177,0.4194,0.4171,0.417,0.4174,0.4145,0.4142,0.4116,0.4155,0.4154,0.4154,0,0.434,0.4326,0.4297,0.4281,0.4274,0.426,0.4243,0.4229,0.4215,0.421,0.4198,0.4196,0.4176,0.4186,0.4158,0.417,0.4161,0.4154,0.4153,0.415,0.416,0.4139,0.4108,0.4104,0.4148,0.4148,0.4149,0,0.4325,0.4298,0.4277,0.4269,0.4251,0.4241,0.4233,0.4219,0.4208,0.4193,0.4186,0.4168,0.4159,0.4145,0.4138,0.4145,0.411,0.4119,0.4105,0.4105,0.4097,0.4097,0.4062,0.4093,0.4093,0.4093,0.4093,0,0.4299,0.428,0.4269,0.4256,0.4236,0.4229,0.4209,0.4201,0.4188,0.4173,0.4171,0.4156,0.4148,0.4132,0.4126,0.4104,0.41,0.4095,0.4093,0.4094,0.4094,0.4086,0.4087,0.4092,0.4092,0.4092,0.4093,0,0.4277,0.4269,0.4246,0.423,0.4226,0.4211,0.4197,0.4184,0.4177,0.4157,0.4152,0.4141,0.4122,0.4113,0.409,0.4086,0.406,0.406,0.4064,0.4064,0.4049,0.405,0.4006,0.4,0.4037,0.4036,0.4036,0,0.426,0.4246,0.4229,0.4219,0.421,0.4193,0.4182,0.4176,0.4164,0.4146,0.4135,0.4116,0.41,0.407,0.4059,0.4041,0.404,0.4026,0.4037,0.4038,0.4038,0.4038,0.4036,0.4023,0.4023,0.4023,0.4022,0,0.4231,0.4227,0.4212,0.4194,0.4181,0.4168,0.4154,0.4145,0.4136,0.4123,0.4104,0.4092,0.4068,0.4049,0.403,0.402,0.4019,0.4019,0.4015,0.4015,0.4017,0.4014,0.4057,0.402,0.402,0.402,0.402,0.4021,0.421,0.4197,0.4182,0.4165,0.4154,0.4141,0.4127,0.4118,0.4102,0.4082,0.4079,0.4058,0.4043,0.4018,0.4008,0.3991,0.3994,0.3988,0.3986,0.3984,0.3982,0.4021,0.3987,0.3987,0.3987,0.3988,0.3988,0,0.4179,0.417,0.4153,0.4134,0.412,0.4121,0.4106,0.4094,0.4075,0.4062,0.4046,0.4023,0.4004,0.3992,0.3973,0.3961,0.396,0.3956,0.3956,0.3954,0.3981,0.3986,0.3958,0.3958,0.3958,0.3958,0.3958,0.3958,0.4161,0.4138,0.4133,0.4105,0.4096,0.4075,0.4066,0.4054,0.4043,0.4017,0.4002,0.3994,0.398,0.396,0.3942,0.3939,0.3931,0.3927,0.3924,0.3949,0.3952,0.3955,0.396,0.3926,0.3926,0.3898,0.3897,0.3897]}]]